Location: Newark
(48.1500°N, 2.9667°W)
Time: 01:13:14
(UTC+00:00)

A-11 Canister half - Pass Details

Date: 26 January 2020
Orbit: 1524 x 1684 km, 47.3° (Epoch: 26 February)

Event Time Altitude Azimuth Distance (km) Brightness Sun altitude
Rises 00:29:37 0° 290° (WNW) 4,775 - -60.7°
Reaches altitude 10° 00:33:03 10° 282° (WNW) 3,811 - -60.7°
Maximum altitude 00:41:16 32° 224° (SW) 2,512 - -60.5°
Drops below altitude 10° 00:49:40 10° 165° (SSE) 3,901 - -60.3°
Sets 00:53:17 0° 157° (SSE) 4,902 - -60.2°
